N8YZF Weather Reports


Display with metric or nautical units.
time (UTC)temp
F
wind
direction
speed
MPH
gust
MPH
rain 1hr
in
rain 24hr
in
rain mn
in
humidity
%
barometer
mb
20181020124832 41 254 0.0 0.0 0.00 0.09 0.00 89 1002.5
20181020124312 41 260 0.0 0.0 0.00 0.09 0.00 89 1002.4
20181020123801 41 259 0.0 0.0 0.00 0.09 0.00 89 1002.4
20181020123228 41 262 0.0 0.0 0.00 0.09 0.00 89 1002.5
20181020122642 41 263 0.0 1.0 0.00 0.09 0.00 89 1002.2
20181020122108 41 261 0.0 0.0 0.00 0.09 0.00 88 1002.2
20181020121514 41 261 1.0 6.0 0.00 0.09 0.00 89 1002.1
20181020120915 41 269 1.0 7.0 0.00 0.09 0.00 89 1002.1
20181020120326 41 293 0.0 0.0 0.00 0.09 0.00 90 1002.1
20181020115742 40 277 1.0 2.0 0.00 0.09 0.00 92 1002.1
20181020115203 40 275 3.0 6.0 0.00 0.09 0.00 93 1002.0
20181020114629 40 277 1.0 6.0 0.00 0.09 0.00 95 1002.0
20181020114036 40 289 1.0 4.0 0.00 0.09 0.00 96 1002.0
20181020113500 39 289 1.0 7.0 0.00 0.09 0.00 96 1001.9
20181020112909 38 292 1.0 2.0 0.00 0.09 0.00 96 1002.0
20181020112319 38 292 1.0 4.0 0.00 0.09 0.00 96 1001.9
20181020111744 38 295 0.0 5.0 0.00 0.09 0.00 95 1001.9
20181020111153 37 297 0.0 0.0 0.00 0.09 0.00 95 1002.2
20181020110601 37 297 0.0 0.0 0.00 0.09 0.00 95 1002.2
20181020110010 37 297 0.0 0.0 0.00 0.09 0.00 95 1002.2
20181020105440 37 297 0.0 0.0 0.00 0.09 0.00 95 1002.2
20181020104906 37 297 0.0 0.0 0.00 0.09 0.00 94 1002.2
20181020104258 37 297 0.0 0.0 0.00 0.09 0.00 94 1002.2
20181020103722 37 297 0.0 0.0 0.00 0.09 0.00 94 1002.2
20181020103148 37 297 0.0 0.0 0.00 0.09 0.00 94 1002.2
20181020102559 38 297 0.0 0.0 0.00 0.09 0.00 93 1002.2
20181020102024 38 297 0.0 0.0 0.00 0.09 0.00 94 1002.3
20181020101515 38 297 0.0 0.0 0.00 0.09 0.00 94 1002.3
20181020100947 38 297 0.0 0.0 0.00 0.09 0.00 93 1002.4
20181020100412 39 297 0.0 0.0 0.00 0.09 0.00 93 1002.4
20181020095809 39 297 0.0 0.0 0.00 0.09 0.00 93 1002.6
20181020095233 39 297 0.0 0.0 0.00 0.09 0.00 92 1002.7
20181020094640 40 297 0.0 0.0 0.00 0.09 0.00 92 1002.7
20181020094046 40 297 0.0 0.0 0.00 0.09 0.00 91 1002.9
20181020093511 41 297 0.0 0.0 0.00 0.09 0.00 92 1003.0
20181020092917 41 297 0.0 0.0 0.00 0.09 0.00 91 1002.9
20181020092322 42 297 0.0 0.0 0.00 0.09 0.00 90 1002.9
20181020091754 43 297 0.0 0.0 0.00 0.09 0.00 90 1003.0
20181020091204 43 297 0.0 0.0 0.00 0.09 0.00 89 1003.1
20181020090613 44 297 0.0 0.0 0.00 0.09 0.00 89 1003.1
20181020090022 44 297 0.0 0.0 0.00 0.09 0.00 89 1003.4
20181020085449 44 297 0.0 0.0 0.00 0.09 0.00 89 1003.4
20181020084918 45 297 0.0 0.0 0.00 0.09 0.00 89 1003.4
20181020084325 45 297 1.0 7.0 0.00 0.09 0.00 89 1003.4
20181020083818 45 281 2.0 8.0 0.00 0.09 0.00 89 1003.5
20181020083315 45 281 3.0 8.0 0.00 0.09 0.00 89 1003.5
20181020082805 45 282 2.0 9.0 0.00 0.09 0.00 89 1003.4
20181020082241 45 277 2.0 6.0 0.00 0.09 0.00 89 1003.4
20181020081708 45 273 3.0 7.0 0.00 0.09 0.00 89 1003.4
20181020081116 46 283 3.0 7.0 0.00 0.09 0.00 89 1003.1
20181020080523 46 277 4.0 9.0 0.00 0.09 0.00 89 1003.1
20181020075933 45 297 3.0 8.0 0.00 0.09 0.00 90 1003.0
20181020075400 45 274 1.0 8.0 0.00 0.09 0.00 90 1003.0
20181020074829 45 289 1.0 5.0 0.00 0.09 0.00 90 1003.0
20181020074322 45 282 2.0 6.0 0.00 0.09 0.00 90 1003.0
20181020073749 45 279 1.0 6.0 0.00 0.09 0.00 91 1003.0
20181020073213 45 280 0.0 0.0 0.00 0.09 0.00 91 1003.0
20181020072622 45 275 1.0 2.0 0.00 0.09 0.00 91 1003.1
20181020072054 46 274 1.0 2.0 0.00 0.09 0.00 91 1003.1
20181020071502 46 275 0.0 0.0 0.00 0.09 0.00 90 1003.2
20181020070911 46 275 1.0 5.0 0.00 0.09 0.00 90 1003.2
20181020070340 46 280 2.0 6.0 0.00 0.09 0.00 90 1003.2
20181020065736 46 274 1.0 5.0 0.00 0.09 0.00 90 1003.1
20181020065205 46 271 1.0 5.0 0.00 0.09 0.00 90 1003.1
20181020064628 46 271 1.0 6.0 0.00 0.09 0.00 90 1003.2
20181020064038 46 279 0.0 0.0 0.00 0.09 0.00 90 1002.9
20181020063507 46 278 1.0 0.0 0.00 0.09 0.00 90 1002.9
20181020062920 46 279 3.0 7.0 0.00 0.09 0.00 91 1002.8
20181020062313 46 281 1.0 7.0 0.00 0.09 0.00 91 1002.8
20181020061812 46 281 0.0 7.0 0.00 0.09 0.00 92 1002.8
20181020061313 46 288 0.0 0.0 0.00 0.09 0.00 92 1002.8
20181020060722 46 290 0.0 0.0 0.00 0.09 0.00 92 1002.8
20181020060150 46 290 0.0 0.0 0.00 0.09 0.00 92 1002.8
20181020055600 46 290 0.0 0.0 0.00 0.09 0.00 92 1002.6
20181020055029 46 290 0.0 0.0 0.00 0.09 0.00 92 1002.6
20181020054512 46 290 0.0 0.0 0.00 0.09 0.00 92 1002.6
20181020054007 46 290 0.0 0.0 0.00 0.09 0.00 92 1002.4
20181020053430 46 291 0.0 0.0 0.00 0.09 0.00 92 1002.5
20181020052841 46 291 0.0 0.0 0.00 0.09 0.00 91 1002.4
20181020052252 46 291 0.0 0.0 0.00 0.09 0.00 91 1002.4
20181020051722 47 291 0.0 0.0 0.00 0.09 0.00 91 1002.4
20181020051135 47 291 1.0 2.0 0.00 0.09 0.00 91 1002.4
20181020050543 47 290 1.0 4.0 0.00 0.09 0.00 91 1002.4
20181020045948 47 291 0.0 4.0 0.00 0.09 0.00 90 1002.5
20181020045408 48 287 2.0 5.0 0.00 0.09 0.00 91 1002.5
20181020044818 48 290 4.0 7.0 0.00 0.09 0.00 91 1002.5
20181020044235 48 298 3.0 7.0 0.00 0.09 0.00 90 1002.5
20181020043700 48 291 3.0 6.0 0.00 0.09 0.00 90 1002.5
20181020043125 49 288 4.0 9.0 0.00 0.09 0.00 90 1002.6
20181020042535 49 281 2.0 9.0 0.00 0.09 0.00 90 1002.6
20181020042000 49 282 2.0 13.0 0.00 0.09 0.00 90 1002.6
20181020041410 49 291 3.0 11.0 0.00 0.09 0.00 90 1002.5
20181020040828 49 288 5.0 11.0 0.00 0.09 0.00 89 1002.5
20181020040318 49 307 5.0 11.0 0.00 0.09 0.00 89 1002.5
20181020035746 49 296 5.0 8.0 0.00 0.09 0.09 89 1002.5
20181020035211 50 295 4.0 8.0 0.00 0.09 0.09 89 1002.5
20181020034633 50 290 6.0 9.0 0.00 0.09 0.09 89 1002.5
20181020034042 50 298 9.0 15.0 0.00 0.09 0.09 89 1002.5
20181020033509 50 294 7.0 15.0 0.00 0.09 0.09 89 1002.5
20181020032916 50 276 7.0 15.0 0.02 0.09 0.09 90 1002.3
20181020032321 51 299 10.0 15.0 0.03 0.09 0.09 90 1002.3
20181020031814 51 307 10.0 20.0 0.03 0.09 0.09 91 1002.3
20181020031304 51 330 11.0 20.0 0.04 0.09 0.09 91 1002.3
20181020030705 51 294 11.0 18.0 0.06 0.09 0.09 91 1002.3
20181020030127 51 300 10.0 16.0 0.06 0.09 0.09 92 1002.3
20181020025543 51 307 9.0 15.0 0.06 0.09 0.09 92 1002.0
20181020025007 51 287 10.0 14.0 0.06 0.09 0.09 93 1002.0
20181020024418 51 275 9.0 13.0 0.06 0.09 0.09 93 1001.6
20181020023841 51 291 8.0 15.0 0.06 0.09 0.09 94 1001.6
20181020023321 51 253 8.0 15.0 0.06 0.09 0.09 93 1001.6
20181020022807 50 250 11.0 13.0 0.03 0.06 0.06 93 1001.5
20181020022230 50 238 10.0 11.0 0.03 0.06 0.06 94 1001.5
20181020021657 51 236 9.0 13.0 0.03 0.06 0.06 93 1001.5
20181020021103 51 238 7.0 13.0 0.02 0.05 0.05 93 1001.6
20181020020506 51 263 7.0 15.0 0.00 0.03 0.03 92 1001.6
20181020015915 51 239 8.0 15.0 0.00 0.03 0.03 92 1001.6
20181020015318 50 316 8.0 11.0 0.00 0.03 0.03 92 1001.6
20181020014818 50 249 8.0 13.0 0.00 0.03 0.03 93 1001.6
20181020014310 50 246 5.0 14.0 0.00 0.03 0.03 93 1001.8
20181020013737 50 236 6.0 15.0 0.00 0.03 0.03 93 1001.8
20181020013202 50 262 7.0 15.0 0.00 0.03 0.03 93 1001.8
20181020012615 49 214 8.0 13.0 0.00 0.03 0.03 93 1001.8
20181020012040 49 217 6.0 19.0 0.00 0.03 0.03 93 1001.8
20181020011445 49 242 6.0 19.0 0.00 0.03 0.03 93 1001.8
20181020010853 49 242 6.0 19.0 0.00 0.03 0.03 93 1001.8
20181020010332 49 268 7.0 19.0 0.00 0.03 0.03 93 1001.8
20181020005815 49 250 8.0 14.0 0.00 0.03 0.03 93 1002.0
20181020005245 49 255 8.0 15.0 0.00 0.03 0.03 93 1002.0
20181020004708 49 257 8.0 10.0 0.00 0.03 0.03 93 1002.0
20181020004114 49 240 8.0 14.0 0.00 0.03 0.03 93 1002.3
20181020003541 49 231 9.0 14.0 0.00 0.03 0.03 93 1002.3
20181020002947 49 242 8.0 15.0 0.00 0.03 0.03 93 1002.4
20181020002415 49 223 8.0 15.0 0.00 0.03 0.03 92 1002.4
20181020001825 49 220 8.0 12.0 0.00 0.03 0.03 92 1002.4
20181020001238 49 257 9.0 14.0 0.00 0.03 0.03 91 1002.6
20181020000654 49 224 9.0 15.0 0.00 0.03 0.03 91 1002.6
20181020000122 49 232 7.0 16.0 0.00 0.03 0.03 91 1002.6
20181019235537 49 227 9.0 16.0 0.00 0.03 0.03 90 1002.7
20181019235005 49 202 8.0 14.0 0.00 0.03 0.03 89 1002.7
20181019234410 49 226 8.0 19.0 0.00 0.03 0.03 89 1002.9
20181019233822 49 219 10.0 13.0 0.00 0.03 0.03 89 1002.9
20181019233319 49 205 10.0 15.0 0.01 0.03 0.03 89 1002.9
20181019232811 49 236 9.0 15.0 0.01 0.03 0.03 89 1003.0
20181019232243 49 215 8.0 20.0 0.02 0.03 0.03 90 1003.0
20181019231708 48 238 6.0 20.0 0.02 0.03 0.03 90 1003.0
20181019231120 48 233 6.0 13.0 0.02 0.03 0.03 90 1003.0
20181019230527 48 215 7.0 11.0 0.02 0.03 0.03 90 1003.0
20181019225506 48 225 7.0 12.0 0.02 0.03 0.03 90 1003.5
20181019224935 48 215 7.0 23.0 0.02 0.03 0.03 90 1003.5
20181019224339 48 244 8.0 23.0 0.02 0.03 0.03 90 1003.4
20181019223822 48 265 5.0 11.0 0.02 0.03 0.03 89 1003.4
20181019223308 48 226 6.0 16.0 0.01 0.02 0.02 89 1003.4
20181019222726 49 240 10.0 16.0 0.01 0.02 0.02 87 1003.5
20181019222151 49 231 10.0 18.0 0.00 0.01 0.01 86 1003.6
20181019221617 49 205 10.0 18.0 0.00 0.01 0.01 84 1003.6
20181019221017 49 205 11.0 19.0 0.00 0.01 0.01 84 1003.1
20181019220440 49 210 11.0 19.0 0.00 0.01 0.01 83 1003.1
20181019215849 50 209 10.0 19.0 0.00 0.01 0.01 83 1003.2
20181019215325 50 213 10.0 19.0 0.00 0.01 0.01 83 1003.2
20181019214812 50 208 11.0 13.0 0.00 0.01 0.01 82 1003.2
20181019214237 50 203 9.0 16.0 0.00 0.01 0.01 81 1003.8
20181019213706 50 203 8.0 10.0 0.00 0.01 0.01 81 1003.8
20181019213129 50 220 10.0 14.0 0.00 0.01 0.01 80 1003.8
20181019212539 50 198 9.0 14.0 0.00 0.01 0.01 80 1004.1
20181019212001 51 238 10.0 14.0 0.00 0.01 0.01 79 1004.1
20181019211408 51 213 8.0 16.0 0.00 0.01 0.01 78 1004.3
20181019210824 51 202 9.0 16.0 0.00 0.01 0.01 78 1004.4
20181019210313 51 211 12.0 19.0 0.00 0.01 0.01 77 1004.4
20181019205737 52 209 9.0 19.0 0.00 0.01 0.01 75 1004.5
20181019205204 52 242 7.0 14.0 0.00 0.01 0.01 73 1004.5
20181019204633 52 240 9.0 21.0 0.00 0.01 0.01 73 1004.5
20181019204043 53 214 10.0 21.0 0.00 0.01 0.01 73 1004.6
20181019203508 53 196 10.0 17.0 0.00 0.01 0.01 72 1004.6
20181019202916 53 204 11.0 17.0 0.00 0.01 0.01 72 1005.0
20181019202322 53 223 12.0 17.0 0.00 0.01 0.01 71 1005.0
20181019201751 53 194 12.0 13.0 0.00 0.01 0.01 71 1005.1
20181019201159 53 202 11.0 15.0 0.00 0.01 0.01 71 1005.5
20181019200606 53 217 8.0 18.0 0.00 0.01 0.01 70 1005.5
20181019200010 53 234 10.0 21.0 0.00 0.01 0.01 71 1005.8
20181019195437 53 256 12.0 21.0 0.00 0.01 0.01 69 1005.8
20181019194903 53 242 12.0 18.0 0.00 0.01 0.01 69 1005.8
20181019194328 53 201 13.0 22.0 0.00 0.01 0.01 68 1006.1
20181019193822 53 228 12.0 22.0 0.00 0.01 0.01 70 1006.1
20181019193322 53 211 11.0 20.0 0.00 0.01 0.01 70 1006.1
20181019192820 53 249 12.0 20.0 0.00 0.01 0.01 70 1006.6
20181019192243 53 254 11.0 18.0 0.00 0.01 0.01 70 1006.6
20181019191708 54 244 7.0 15.0 0.00 0.01 0.01 69 1006.7
20181019191114 53 221 9.0 13.0 0.00 0.01 0.01 70 1006.6
20181019190520 53 228 11.0 13.0 0.00 0.01 0.01 70 1006.6
20181019185934 53 240 11.0 15.0 0.00 0.01 0.01 70 1007.3
20181019185357 53 207 11.0 16.0 0.00 0.01 0.01 71 1007.3
20181019184827 53 223 11.0 19.0 0.00 0.01 0.01 70 1007.3
20181019184320 53 205 13.0 17.0 0.00 0.01 0.01 72 1008.2
20181019183747 53 223 12.0 21.0 0.00 0.01 0.01 71 1008.2
20181019183213 52 243 12.0 19.0 0.01 0.01 0.01 72 1008.2
20181019182627 52 214 12.0 15.0 0.01 0.01 0.01 73 1008.9
20181019182057 52 235 12.0 18.0 0.01 0.01 0.01 73 1008.9
20181019181503 52 200 8.0 18.0 0.01 0.01 0.01 73 1009.4
20181019180909 52 194 8.0 22.0 0.01 0.01 0.01 75 1009.4
20181019180320 52 219 7.0 15.0 0.01 0.01 0.01 75 1009.3
20181019175811 52 240 6.0 15.0 0.01 0.01 0.01 75 1009.8
20181019175305 51 215 7.0 11.0 0.01 0.01 0.01 77 1009.8
20181019174728 51 218 9.0 15.0 0.01 0.01 0.01 77 1009.8
20181019174135 51 246 8.0 15.0 0.01 0.01 0.01 78 1010.4
20181019173601 51 238 8.0 15.0 0.01 0.01 0.01 78 1010.5
20181019173011 52 209 7.0 15.0 0.00 0.00 0.00 76 1011.1
20181019172441 52 229 6.0 10.0 0.00 0.00 0.00 76 1011.1
20181019171905 52 248 9.0 16.0 0.00 0.00 0.00 76 1011.1
20181019171310 52 261 10.0 16.0 0.00 0.00 0.00 76 1011.4
20181019170810 52 259 9.0 16.0 0.00 0.00 0.00 76 1011.4
20181019170234 52 249 7.0 16.0 0.00 0.00 0.00 76 1011.4
20181019165638 53 228 9.0 13.0 0.00 0.00 0.00 76 1011.5
20181019165105 53 227 9.0 13.0 0.00 0.00 0.00 76 1011.5
20181019164517 52 227 7.0 11.0 0.00 0.00 0.00 77 1011.6
20181019163946 52 260 7.0 16.0 0.00 0.00 0.00 77 1011.6
20181019163406 52 199 6.0 16.0 0.00 0.00 0.00 78 1011.5
20181019162822 52 223 5.0 9.0 0.00 0.00 0.00 78 1011.9
20181019162309 51 210 7.0 11.0 0.00 0.00 0.00 78 1011.9
20181019161755 51 213 8.0 14.0 0.00 0.00 0.00 78 1011.9
20181019161205 51 237 8.0 16.0 0.00 0.00 0.00 78 1012.4
20181019160611 51 221 7.0 14.0 0.00 0.00 0.00 78 1012.4
20181019160019 51 242 9.0 14.0 0.00 0.00 0.00 78 1012.5
20181019155444 52 242 8.0 13.0 0.00 0.00 0.00 78 1012.5
20181019154912 52 224 9.0 17.0 0.00 0.00 0.00 78 1012.5
20181019154315 52 229 9.0 16.0 0.00 0.00 0.00 77 1012.6
20181019153748 52 197 9.0 14.0 0.00 0.00 0.00 77 1012.6
20181019153207 52 223 10.0 16.0 0.00 0.00 0.00 77 1012.7
20181019152615 52 216 8.0 16.0 0.00 0.00 0.00 76 1012.8
20181019152039 53 236 9.0 12.0 0.00 0.00 0.00 77 1012.8
20181019151447 52 229 10.0 12.0 0.00 0.00 0.00 77 1013.0
20181019150855 52 225 8.0 12.0 0.00 0.00 0.00 77 1013.1
20181019150326 53 215 8.0 12.0 0.00 0.00 0.00 77 1013.1
20181019145813 53 225 8.0 14.0 0.00 0.00 0.00 77 1013.2
20181019145238 53 227 8.0 13.0 0.00 0.00 0.00 77 1013.2
20181019144700 52 209 10.0 15.0 0.00 0.00 0.00 78 1013.2
20181019144110 52 234 7.0 15.0 0.00 0.00 0.00 77 1013.5
20181019143535 52 200 7.0 11.0 0.00 0.00 0.00 78 1013.5
20181019142945 52 205 9.0 13.0 0.00 0.00 0.00 78 1013.9
20181019142414 52 219 7.0 13.0 0.00 0.00 0.00 78 1013.9
20181019141842 52 223 7.0 13.0 0.00 0.00 0.00 78 1013.9
20181019141322 51 212 8.0 12.0 0.00 0.00 0.00 79 1014.3
20181019140745 51 236 8.0 13.0 0.00 0.00 0.00 79 1014.3
20181019140209 51 205 8.0 15.0 0.00 0.00 0.00 79 1014.3
20181019135616 51 211 8.0 17.0 0.00 0.00 0.00 81 1014.4
20181019135044 50 232 4.0 17.0 0.00 0.00 0.00 81 1014.4
20181019134452 50 232 4.0 13.0 0.00 0.00 0.00 82 1014.4
20181019133914 49 198 4.0 13.0 0.00 0.00 0.00 84 1014.4
20181019133323 48 205 0.0 7.0 0.00 0.00 0.00 86 1014.3
20181019132733 47 169 0.0 0.0 0.00 0.00 0.00 87 1014.6
20181019132158 46 167 0.0 1.0 0.00 0.00 0.00 88 1014.5
20181019131625 46 165 0.0 1.0 0.00 0.00 0.00 88 1014.5
20181019131016 45 176 0.0 0.0 0.00 0.00 0.00 89 1014.6
20181019130441 45 176 0.0 0.0 0.00 0.00 0.00 90 1014.5
20181019125858 44 176 1.0 3.0 0.00 0.00 0.00 89 1014.9
20181019125317 44 182 1.0 3.0 0.00 0.00 0.00 89 1014.9